Location: Newark
(42.7133°N, 87.7910°W)
Time: 19:37:14
(UTC+00:00)

Tiros 1 - Pass Details

Date: 20 September 2019
Orbit: 630 x 664 km, 48.4° (Epoch: 16 October)

Event Time Altitude Azimuth Distance (km) Brightness Sun altitude
Rises 01:22:19 0° 292° (WNW) 2,932 12.3 -16.7°
Reaches altitude 10° 01:24:48 10° 284° (WNW) 2,016 11.0 -17.2°
Maximum altitude 01:28:58 34° 219° (SW) 1,041 8.4 -17.9°
Enters shadow 01:31:34 19° 167° (SSE) 1,493 8.7 -18.4°
Drops below altitude 10° 01:33:07 10° 155° (SSE) 1,998 - -18.6°
Sets 01:35:35 0° 146° (SE) 2,901 - -19.0°
